CT1OY Oeiras PT current weather conditions

sailwx.info

Wind from 105 at 4 knots

Air temperature 12.2° C
Dewpoint 11.0° C

Last reported at 2015-Mar-27 02:38 UTC.
Time now 2015-Mar-27 03:37 UTC

Location: N 38°44' W 009°17'.
View on Google Maps.

See reports from other nearby stations

  
Tides and Currents Weather Stations Pressure Air Temp Water Temp Dewpoint Dewpoint Depression Visibility Wind Speed Wind Dir Waves Ship Positions
date/time (UTC)wind fromknots sea level pressurealtimeterstation pressurevisibilityair tempwater tempwave heightnotes
2015-Mar-27 02:38 105 4 12.2
2015-Mar-27 02:28 105 4 12.2
2015-Mar-27 02:18 105 4 12.2
2015-Mar-27 01:58 105 4 12.2
2015-Mar-27 01:48 105 4 12.2
2015-Mar-27 01:38 105 4 12.2
2015-Mar-27 01:28 105 4 12.2
2015-Mar-27 01:08 105 4 12.2
2015-Mar-27 00:48 105 4 12.2
2015-Mar-27 00:38 105 4 12.2
2015-Mar-27 00:28 105 4 12.2
2015-Mar-27 00:18 105 4 12.2
2015-Mar-26 23:58 105 4 12.2
2015-Mar-26 23:48 105 4 12.2
2015-Mar-26 23:18 105 4 12.2
2015-Mar-26 23:08 105 4 12.2
2015-Mar-26 22:58 105 4 12.2
2015-Mar-26 22:28 105 4 12.2
2015-Mar-26 22:18 105 4 12.2
2015-Mar-26 21:58 105 4 12.2
2015-Mar-26 21:38 105 4 12.2
2015-Mar-26 20:18 105 4 12.2
2015-Mar-26 20:08 105 4 12.2
2015-Mar-26 19:58 105 4 12.2
2015-Mar-26 19:48 105 4 12.2
2015-Mar-26 18:58 105 4 12.2
2015-Mar-26 18:48 105 4 12.2
2015-Mar-26 18:38 105 4 12.2
2015-Mar-26 18:28 105 4 12.2
2015-Mar-26 18:18 328 0 12.8
2015-Mar-26 18:08 270 0 12.8
2015-Mar-26 17:48 277 13.3
2015-Mar-26 17:38 280 13.3
2015-Mar-26 17:28 304 3 13.3
2015-Mar-26 17:18 297 13.3
2015-Mar-26 17:08 279 2 13.3
2015-Mar-26 16:58 288 13.3
2015-Mar-26 16:48 304 1 13.3
2015-Mar-26 16:18 317 13.9
2015-Mar-26 16:08 311 2 13.9
2015-Mar-26 15:58 311 2 13.9
2015-Mar-26 15:28 311 2 13.9
2015-Mar-26 15:18 311 2 13.9
2015-Mar-26 14:58 311 2 gusting 11 13.9
2015-Mar-26 14:28 285 8 gusting 13 14.4
2015-Mar-26 14:18 320 4 14.4
2015-Mar-26 13:58 276 14.4
2015-Mar-26 13:48 287 14.4
2015-Mar-26 13:38 360 13.9
2015-Mar-26 13:28 305 3 13.9
2015-Mar-26 13:18 270 1 13.9
2015-Mar-26 13:08 311 13.9
2015-Mar-26 12:58 262 6 gusting 15 14.4
2015-Mar-26 12:38 288 14.4
2015-Mar-26 12:18 262 0 gusting 12 14.4
2015-Mar-26 12:08 062 1 14.4
2015-Mar-26 11:58 269 0 gusting 14 13.9
2015-Mar-26 11:48 283 0 gusting 11 13.9
2015-Mar-26 10:58 284 3 gusting 11 15.0
2015-Mar-26 10:48 283 14.4
2015-Mar-26 10:38 300 5 gusting 11 14.4
2015-Mar-26 10:28 317 1 14.4
2015-Mar-26 10:18 315 4 gusting 10 14.4
2015-Mar-26 10:08 034 5 gusting 11 14.4
2015-Mar-26 09:58 336 3 gusting 13 13.9
2015-Mar-26 09:48 314 2 gusting 14 13.3
2015-Mar-26 09:38 328 13.3
2015-Mar-26 09:28 333 4 gusting 14 13.3
2015-Mar-26 09:18 311 12.8
2015-Mar-26 09:08 279 10 gusting 10 12.8
2015-Mar-26 08:58 008 3 gusting 15 12.8
2015-Mar-26 08:48 311 3 gusting 15 12.2
2015-Mar-26 08:38 287 0 gusting 15 12.2
2015-Mar-26 08:08 273 13 gusting 18 11.1
2015-Mar-26 07:58 253 2 10.6
2015-Mar-26 07:48 253 2 10.6
2015-Mar-26 07:38 253 2 10.6
2015-Mar-26 07:28 253 2 10.6
2015-Mar-26 07:08 253 2 10.6
2015-Mar-26 06:58 253 2 10.6
2015-Mar-26 06:08 253 2 10.6
2015-Mar-26 05:48 253 2 10.6
2015-Mar-26 05:38 253 2 10.6
2015-Mar-26 05:28 253 2 10.6
2015-Mar-26 05:08 253 2 10.6
2015-Mar-26 04:28 253 2 10.6
2015-Mar-26 04:18 253 2 10.6
2015-Mar-26 04:08 253 2 10.6
2015-Mar-26 03:48 253 2 10.6
2015-Mar-26 03:38 253 2 10.6
2015-Mar-26 03:28 253 2 10.6
2015-Mar-26 03:08 253 2 10.6
2015-Mar-26 02:58 253 2 10.6
2015-Mar-26 02:48 253 2 10.6
2015-Mar-26 02:28 253 2 10.6
2015-Mar-26 02:18 253 2 10.6
2015-Mar-26 02:08 253 2 10.6
2015-Mar-26 01:58 253 2 10.6
2015-Mar-26 01:48 253 2 10.6
2015-Mar-26 01:38 253 2 10.6
2015-Mar-26 01:28 253 2 10.6
2015-Mar-26 01:18 253 2 10.6
2015-Mar-26 00:28 253 2 10.6
2015-Mar-26 00:08 253 2 10.6
2015-Mar-25 23:58 253 2 10.6
2015-Mar-25 23:48 253 2 10.6
2015-Mar-25 23:38 253 2 10.6
2015-Mar-25 23:08 253 2 10.6
2015-Mar-25 22:58 253 2 10.6
2015-Mar-25 22:48 253 2 10.6
2015-Mar-25 22:28 253 2 10.6
2015-Mar-25 22:18 253 2 10.6
2015-Mar-25 21:38 253 2 10.6
2015-Mar-25 21:28 253 2 10.6
2015-Mar-25 20:58 253 2 10.6
2015-Mar-25 20:48 253 2 gusting 18 10.6
2015-Mar-25 20:38 293 0 gusting 14 10.6
2015-Mar-25 20:28 344 6 gusting 14 10.6
2015-Mar-25 20:18 266 4 gusting 17 10.6
2015-Mar-25 19:38 310 2 gusting 12 10.6
2015-Mar-25 19:28 296 10.6
2015-Mar-25 19:08 350 11.1
2015-Mar-25 18:58 257 0 gusting 17 11.1
2015-Mar-25 18:38 008 3 gusting 19 11.1
2015-Mar-25 18:28 289 2 gusting 18 11.1
2015-Mar-25 18:18 255 4 gusting 14 11.7
2015-Mar-25 18:08 288 1 gusting 13 11.7
2015-Mar-25 17:38 311 2 12.2
2015-Mar-25 17:28 311 2 12.2
2015-Mar-25 17:18 311 2 12.2
2015-Mar-25 17:08 311 2 12.2
2015-Mar-25 16:58 311 2 12.2
2015-Mar-25 16:48 311 2 12.2
2015-Mar-25 16:28 311 2 gusting 15 12.2
2015-Mar-25 16:08 343 12.8
2015-Mar-25 15:58 295 3 gusting 19 12.8
2015-Mar-25 15:48 326 12.8
2015-Mar-25 15:28 288 6 gusting 17 12.8
2015-Mar-25 15:18 281 6 gusting 20 12.8
2015-Mar-25 15:08 335 3 gusting 26 12.8
2015-Mar-25 14:58 360 12 gusting 19 13.3
2015-Mar-25 14:48 319 4 gusting 21 13.3
2015-Mar-25 14:28 034 3 gusting 18 13.3
2015-Mar-25 14:18 256 4 gusting 19 13.3
2015-Mar-25 13:58 253 9 gusting 23 13.3
2015-Mar-25 13:48 321 2 gusting 19 13.3
2015-Mar-25 13:18 311 2 gusting 19 13.3
2015-Mar-25 13:08 344 11 gusting 19 13.3
2015-Mar-25 12:48 266 4 gusting 19 13.3
2015-Mar-25 12:08 001 12 gusting 22 13.3
2015-Mar-25 11:58 339 4 gusting 24 13.3
2015-Mar-25 11:38 005 3 gusting 18 13.3
2015-Mar-25 11:28 316 2 gusting 14 13.3
2015-Mar-25 11:08 315 13.3
2015-Mar-25 10:58 066 4 gusting 12 13.3
2015-Mar-25 10:48 349 1 gusting 12 12.8
2015-Mar-25 10:38 335 12.8
2015-Mar-25 10:28 324 1 gusting 11 12.8
2015-Mar-25 10:08 246 4 gusting 15 12.2
2015-Mar-25 09:58 335 12.2
2015-Mar-25 09:38 354 1 gusting 13 11.7
2015-Mar-25 09:28 009 1 gusting 10 11.7
2015-Mar-25 09:18 304 0 gusting 13 11.1
2015-Mar-25 08:58 330 7 10.6
2015-Mar-25 08:48 330 7 10.6
2015-Mar-25 07:38 330 7 10.6
2015-Mar-25 07:28 330 7 10.6
2015-Mar-25 07:18 330 7 10.6
2015-Mar-25 07:08 330 7 10.6
2015-Mar-25 06:48 330 7 10.6
2015-Mar-25 06:38 330 7 10.6
2015-Mar-25 05:38 330 7 10.6
2015-Mar-25 05:28 330 7 10.6
2015-Mar-25 04:58 330 7 10.6
2015-Mar-25 04:38 330 7 10.6
2015-Mar-25 04:28 330 7 10.6
2015-Mar-25 04:18 330 7 10.6
2015-Mar-25 04:08 330 7 10.6
2015-Mar-25 03:58 330 7 10.6
2015-Mar-25 03:48 330 7 10.6
2015-Mar-25 03:38 330 7 10.6
2015-Mar-25 03:18 330 7 10.6
2015-Mar-25 03:08 330 7 10.6